Time,TemperatureF,DewpointF,PressureIn,WindDirection,WindDirectionDegrees,WindSpeedMPH,WindSpeedGustMPH,Humidity,HourlyPrecipIn,Conditions,Clouds,dailyrainin,SoftwareType,DateUTC
2013-10-09 00:01:00,62.8,53.6,29.93,ESE,122,0.0,5.0,72,0.00,,,0.00,WeatherCatV1.15B25,2013-10-09 05:01:00,
2013-10-09 00:06:00,62.7,53.5,29.93,SSE,161,0.0,0.0,72,0.00,,,0.00,WeatherCatV1.15B25,2013-10-09 05:06:00,
2013-10-09 00:11:00,62.6,53.4,29.93,SE,128,0.0,2.0,72,0.00,,,0.00,WeatherCatV1.15B25,2013-10-09 05:11:00,
2013-10-09 00:16:00,62.5,53.3,29.93,East,101,0.0,2.0,72,0.00,,,0.00,WeatherCatV1.15B25,2013-10-09 05:16:00,
2013-10-09 00:21:00,62.4,53.6,29.93,SE,126,0.0,0.0,73,0.00,,,0.00,WeatherCatV1.15B25,2013-10-09 05:21:00,
2013-10-09 00:26:00,62.2,53.4,29.93,SE,143,0.0,0.0,73,0.00,,,0.00,WeatherCatV1.15B25,2013-10-09 05:26:00,
2013-10-09 00:31:00,62.1,53.3,29.93,SE,143,0.0,1.0,73,0.00,,,0.00,WeatherCatV1.15B25,2013-10-09 05:31:00,
2013-10-09 00:36:00,62.0,53.2,29.93,ESE,119,0.0,0.0,73,0.00,,,0.00,WeatherCatV1.15B25,2013-10-09 05:36:00,
2013-10-09 00:41:00,61.8,53.0,29.93,SE,135,0.0,0.0,73,0.00,,,0.00,WeatherCatV1.15B25,2013-10-09 05:41:00,
2013-10-09 00:46:00,61.7,53.0,29.93,SSE,148,0.0,2.0,73,0.00,,,0.00,WeatherCatV1.15B25,2013-10-09 05:46:00,
2013-10-09 00:51:00,61.6,52.9,29.93,SSE,156,0.0,0.0,73,0.00,,,0.00,WeatherCatV1.15B25,2013-10-09 05:51:00,
2013-10-09 00:56:00,61.5,52.8,29.93,SE,137,0.0,2.0,73,0.00,,,0.00,WeatherCatV1.15B25,2013-10-09 05:56:00,
2013-10-09 01:01:00,61.5,52.8,29.93,ESE,121,0.0,2.0,73,0.00,,,0.00,WeatherCatV1.15B25,2013-10-09 06:01:00,
2013-10-09 01:06:00,61.4,52.7,29.93,SSE,152,0.0,0.0,73,0.00,,,0.00,WeatherCatV1.15B25,2013-10-09 06:06:00,
2013-10-09 01:11:00,61.3,52.6,29.93,SE,130,0.0,1.0,73,0.00,,,0.00,WeatherCatV1.15B25,2013-10-09 06:11:00,
2013-10-09 01:16:00,61.2,52.5,29.93,ESE,112,0.0,2.0,73,0.00,,,0.00,WeatherCatV1.15B25,2013-10-09 06:16:00,
2013-10-09 01:21:00,61.2,52.5,29.93,SSE,155,0.0,0.0,73,0.00,,,0.00,WeatherCatV1.15B25,2013-10-09 06:21:00,
2013-10-09 01:26:00,61.1,52.7,29.93,SSW,200,0.0,0.0,74,0.00,,,0.00,WeatherCatV1.15B25,2013-10-09 06:26:00,
2013-10-09 01:32:00,61.0,52.6,29.93,SE,132,0.0,0.0,74,0.00,,,0.00,WeatherCatV1.15B25,2013-10-09 06:32:00,
2013-10-09 01:37:00,60.9,52.6,29.93,SSE,148,0.0,2.0,74,0.00,,,0.00,WeatherCatV1.15B25,2013-10-09 06:37:00,
2013-10-09 01:42:00,60.7,52.4,29.93,SSE,147,0.0,1.0,74,0.00,,,0.00,WeatherCatV1.15B25,2013-10-09 06:42:00,
2013-10-09 01:47:00,60.7,52.4,29.93,East,96,0.0,1.0,74,0.00,,,0.00,WeatherCatV1.15B25,2013-10-09 06:47:00,
2013-10-09 01:52:00,60.5,52.2,29.93,ESE,107,0.0,0.0,74,0.00,,,0.00,WeatherCatV1.15B25,2013-10-09 06:52:00,
2013-10-09 01:57:00,60.4,52.4,29.93,SE,127,0.0,0.0,75,0.00,,,0.00,WeatherCatV1.15B25,2013-10-09 06:57:00,
2013-10-09 02:02:00,60.3,52.3,29.93,East,94,0.0,4.0,75,0.00,,,0.00,WeatherCatV1.15B25,2013-10-09 07:02:00,
2013-10-09 02:07:00,60.2,52.6,29.93,SSE,166,0.0,0.0,76,0.00,,,0.00,WeatherCatV1.15B25,2013-10-09 07:07:00,
2013-10-09 02:12:00,60.1,52.5,29.93,SE,124,0.0,0.0,76,0.00,,,0.00,WeatherCatV1.15B25,2013-10-09 07:12:00,
2013-10-09 02:17:00,60.0,52.4,29.93,ENE,69,0.0,1.0,76,0.00,,,0.00,WeatherCatV1.15B25,2013-10-09 07:17:00,
2013-10-09 02:22:00,59.9,52.3,29.93,SE,128,0.0,0.0,76,0.00,,,0.00,WeatherCatV1.15B25,2013-10-09 07:22:00,
2013-10-09 02:27:00,59.8,52.2,29.93,SSE,168,0.0,0.0,76,0.00,,,0.00,WeatherCatV1.15B25,2013-10-09 07:27:00,
2013-10-09 02:32:00,59.8,52.6,29.93,SSE,147,0.0,0.0,77,0.00,,,0.00,WeatherCatV1.15B25,2013-10-09 07:32:00,
2013-10-09 02:37:00,59.7,52.5,29.93,SE,143,0.0,1.0,77,0.00,,,0.00,WeatherCatV1.15B25,2013-10-09 07:37:00,
2013-10-09 02:42:00,59.6,52.4,29.93,SE,140,0.0,1.0,77,0.00,,,0.00,WeatherCatV1.15B25,2013-10-09 07:42:00,
2013-10-09 02:47:00,59.6,52.4,29.93,SE,130,0.0,3.0,77,0.00,,,0.00,WeatherCatV1.15B25,2013-10-09 07:47:00,
2013-10-09 02:52:00,59.6,52.4,29.93,SE,125,0.0,1.0,77,0.00,,,0.00,WeatherCatV1.15B25,2013-10-09 07:52:00,
2013-10-09 02:57:00,59.5,52.3,29.93,ESE,103,0.0,1.0,77,0.00,,,0.00,WeatherCatV1.15B25,2013-10-09 07:57:00,
2013-10-09 03:02:00,59.4,52.2,29.93,ESE,113,0.0,1.0,77,0.00,,,0.00,WeatherCatV1.15B25,2013-10-09 08:02:00,
2013-10-09 03:07:00,59.3,52.1,29.93,South,171,0.0,1.0,77,0.00,,,0.00,WeatherCatV1.15B25,2013-10-09 08:07:00,
2013-10-09 03:12:00,59.3,52.4,29.93,SSE,157,0.0,0.0,78,0.00,,,0.00,WeatherCatV1.15B25,2013-10-09 08:12:00,
2013-10-09 03:17:00,59.2,52.3,29.93,SSE,157,0.0,0.0,78,0.00,,,0.00,WeatherCatV1.15B25,2013-10-09 08:17:00,
2013-10-09 03:22:00,59.0,52.1,29.93,SE,145,0.0,0.0,78,0.00,,,0.00,WeatherCatV1.15B25,2013-10-09 08:22:00,
2013-10-09 03:27:00,58.9,52.0,29.93,ESE,117,0.0,0.0,78,0.00,,,0.00,WeatherCatV1.15B25,2013-10-09 08:27:00,
2013-10-09 03:32:00,58.8,52.0,29.92,ESE,105,0.0,1.0,78,0.00,,,0.00,WeatherCatV1.15B25,2013-10-09 08:32:00,
2013-10-09 03:37:00,58.7,52.2,29.92,SE,136,0.0,0.0,79,0.00,,,0.00,WeatherCatV1.15B25,2013-10-09 08:37:00,
2013-10-09 03:42:00,58.7,52.2,29.92,SSE,150,0.0,0.0,79,0.00,,,0.00,WeatherCatV1.15B25,2013-10-09 08:42:00,
2013-10-09 03:47:00,58.6,52.1,29.92,SE,128,0.0,0.0,79,0.00,,,0.00,WeatherCatV1.15B25,2013-10-09 08:47:00,
2013-10-09 03:52:00,58.6,52.1,29.92,SE,142,0.0,0.0,79,0.00,,,0.00,WeatherCatV1.15B25,2013-10-09 08:52:00,
2013-10-09 03:57:00,58.5,52.3,29.92,SE,135,0.0,0.0,80,0.00,,,0.00,WeatherCatV1.15B25,2013-10-09 08:57:00,
2013-10-09 04:02:00,58.4,52.3,29.92,SSE,147,0.0,0.0,80,0.00,,,0.00,WeatherCatV1.15B25,2013-10-09 09:02:00,
2013-10-09 04:07:00,58.3,52.2,29.92,SE,140,0.0,0.0,80,0.00,,,0.00,WeatherCatV1.15B25,2013-10-09 09:07:00,
2013-10-09 04:12:00,58.2,52.1,29.92,SE,126,0.0,0.0,80,0.00,,,0.00,WeatherCatV1.15B25,2013-10-09 09:12:00,
2013-10-09 04:17:00,58.2,52.4,29.92,SE,140,2.0,3.0,81,0.00,,,0.00,WeatherCatV1.15B25,2013-10-09 09:17:00,
2013-10-09 04:22:00,58.1,52.3,29.92,SSE,147,0.0,1.0,81,0.00,,,0.00,WeatherCatV1.15B25,2013-10-09 09:22:00,
2013-10-09 04:27:00,58.0,52.2,29.92,SE,140,0.0,1.0,81,0.00,,,0.00,WeatherCatV1.15B25,2013-10-09 09:27:00,
2013-10-09 04:32:00,57.9,52.1,29.92,SE,128,0.0,2.0,81,0.00,,,0.00,WeatherCatV1.15B25,2013-10-09 09:32:00,
2013-10-09 04:37:00,57.9,52.1,29.92,SSE,167,0.0,2.0,81,0.00,,,0.00,WeatherCatV1.15B25,2013-10-09 09:37:00,
2013-10-09 04:42:00,57.9,52.1,29.92,SE,128,0.0,0.0,81,0.00,,,0.00,WeatherCatV1.15B25,2013-10-09 09:42:00,
2013-10-09 04:47:00,57.8,52.3,29.92,SSE,153,0.0,0.0,82,0.00,,,0.00,WeatherCatV1.15B25,2013-10-09 09:47:00,
2013-10-09 04:52:00,57.7,52.2,29.92,SE,130,0.0,0.0,82,0.00,,,0.00,WeatherCatV1.15B25,2013-10-09 09:52:00,
2013-10-09 04:57:00,57.6,52.1,29.92,SE,130,0.0,0.0,82,0.00,,,0.00,WeatherCatV1.15B25,2013-10-09 09:57:00,
2013-10-09 05:02:00,57.5,52.0,29.93,SE,130,0.0,0.0,82,0.00,,,0.00,WeatherCatV1.15B25,2013-10-09 10:02:00,
2013-10-09 05:07:00,57.4,52.3,29.93,SE,130,0.0,0.0,83,0.00,,,0.00,WeatherCatV1.15B25,2013-10-09 10:07:00,
2013-10-09 05:12:00,57.3,52.2,29.93,ESE,109,0.0,0.0,83,0.00,,,0.00,WeatherCatV1.15B25,2013-10-09 10:12:00,
2013-10-09 05:17:00,57.1,52.0,29.94,SE,142,0.0,0.0,83,0.00,,,0.00,WeatherCatV1.15B25,2013-10-09 10:17:00,
2013-10-09 05:22:00,57.0,51.9,29.94,SE,142,0.0,0.0,83,0.00,,,0.00,WeatherCatV1.15B25,2013-10-09 10:22:00,
2013-10-09 05:27:00,57.0,52.2,29.94,ESE,120,0.0,1.0,84,0.00,,,0.00,WeatherCatV1.15B25,2013-10-09 10:27:00,
2013-10-09 05:32:00,56.9,52.1,29.94,ESE,120,0.0,0.0,84,0.00,,,0.00,WeatherCatV1.15B25,2013-10-09 10:32:00,
2013-10-09 05:37:00,56.8,52.0,29.94,SE,130,0.0,0.0,84,0.00,,,0.00,WeatherCatV1.15B25,2013-10-09 10:37:00,
2013-10-09 05:42:00,56.7,51.9,29.94,SE,128,0.0,0.0,84,0.00,,,0.00,WeatherCatV1.15B25,2013-10-09 10:42:00,
2013-10-09 05:47:00,56.6,51.8,29.94,SE,139,0.0,0.0,84,0.00,,,0.00,WeatherCatV1.15B25,2013-10-09 10:47:00,
2013-10-09 05:52:00,56.6,51.8,29.94,SE,139,0.0,0.0,84,0.00,,,0.00,WeatherCatV1.15B25,2013-10-09 10:52:00,
2013-10-09 05:57:00,56.5,51.7,29.94,ESE,119,1.0,2.0,84,0.00,,,0.00,WeatherCatV1.15B25,2013-10-09 10:57:00,
2013-10-09 06:02:00,56.4,51.9,29.95,SE,138,0.0,0.0,85,0.00,,,0.00,WeatherCatV1.15B25,2013-10-09 11:02:00,
2013-10-09 06:07:00,56.4,51.9,29.95,SE,137,0.0,0.0,85,0.00,,,0.00,WeatherCatV1.15B25,2013-10-09 11:07:00,
2013-10-09 06:12:00,56.3,51.8,29.95,ESE,108,0.0,0.0,85,0.00,,,0.00,WeatherCatV1.15B25,2013-10-09 11:12:00,
2013-10-09 06:17:00,56.2,51.7,29.95,SE,146,0.0,0.0,85,0.00,,,0.00,WeatherCatV1.15B25,2013-10-09 11:17:00,
2013-10-09 06:22:00,56.2,52.1,29.95,SE,146,0.0,0.0,86,0.00,,,0.00,WeatherCatV1.15B25,2013-10-09 11:22:00,
2013-10-09 06:27:00,56.2,52.1,29.95,SE,141,0.0,0.0,86,0.00,,,0.00,WeatherCatV1.15B25,2013-10-09 11:27:00,
2013-10-09 06:32:00,56.2,52.1,29.96,SE,141,0.0,0.0,86,0.00,,,0.00,WeatherCatV1.15B25,2013-10-09 11:32:00,
2013-10-09 06:37:00,56.1,52.0,29.96,SE,136,0.0,0.0,86,0.00,,,0.00,WeatherCatV1.15B25,2013-10-09 11:37:00,
2013-10-09 06:42:00,56.1,52.0,29.96,SSE,147,0.0,0.0,86,0.00,,,0.00,WeatherCatV1.15B25,2013-10-09 11:42:00,
2013-10-09 06:47:00,56.1,52.0,29.96,SSE,147,0.0,0.0,86,0.00,,,0.00,WeatherCatV1.15B25,2013-10-09 11:47:00,
2013-10-09 06:52:00,56.0,51.9,29.96,SSE,164,0.0,0.0,86,0.00,,,0.00,WeatherCatV1.15B25,2013-10-09 11:52:00,
2013-10-09 06:57:00,56.0,51.9,29.96,SE,140,0.0,0.0,86,0.00,,,0.00,WeatherCatV1.15B25,2013-10-09 11:57:00,
2013-10-09 07:02:00,55.9,51.8,29.97,SE,138,0.0,0.0,86,0.00,,,0.00,WeatherCatV1.15B25,2013-10-09 12:02:00,
2013-10-09 07:03:00,55.9,51.8,29.97,SE,138,0.0,0.0,86,0.00,,,0.00,WeatherCatV1.15B25,2013-10-09 12:03:00,
2013-10-09 07:08:00,55.8,52.0,29.97,ESE,113,0.0,0.0,87,0.00,,,0.00,WeatherCatV1.15B25,2013-10-09 12:08:00,
2013-10-09 07:13:00,55.8,52.0,29.97,ESE,113,0.0,0.0,87,0.00,,,0.00,WeatherCatV1.15B25,2013-10-09 12:13:00,
2013-10-09 07:18:00,55.8,52.0,29.97,SE,146,0.0,2.0,87,0.00,,,0.00,WeatherCatV1.15B25,2013-10-09 12:18:00,
2013-10-09 07:23:00,55.7,51.9,29.97,NE,38,0.0,1.0,87,0.00,,,0.00,WeatherCatV1.15B25,2013-10-09 12:23:00,
2013-10-09 07:28:00,55.7,51.9,29.97,SE,139,0.0,1.0,87,0.00,,,0.00,WeatherCatV1.15B25,2013-10-09 12:28:00,
2013-10-09 07:33:00,55.7,51.9,29.97,South,172,0.0,0.0,87,0.00,,,0.00,WeatherCatV1.15B25,2013-10-09 12:33:00,
2013-10-09 07:38:00,55.7,52.2,29.97,SE,130,0.0,0.0,88,0.00,,,0.00,WeatherCatV1.15B25,2013-10-09 12:38:00,
2013-10-09 07:43:00,55.7,52.2,29.97,SSE,152,0.0,0.0,88,0.00,,,0.00,WeatherCatV1.15B25,2013-10-09 12:43:00,
2013-10-09 07:48:00,55.7,52.2,29.97,ESE,115,0.0,0.0,88,0.00,,,0.00,WeatherCatV1.15B25,2013-10-09 12:48:00,
2013-10-09 07:53:00,55.8,52.3,29.97,SSE,151,0.0,0.0,88,0.00,,,0.00,WeatherCatV1.15B25,2013-10-09 12:53:00,
2013-10-09 07:58:00,55.9,52.4,29.97,SSE,150,1.0,2.0,88,0.00,,,0.00,WeatherCatV1.15B25,2013-10-09 12:58:00,
2013-10-09 08:03:00,56.0,52.5,29.98,SE,134,0.0,1.0,88,0.00,,,0.00,WeatherCatV1.15B25,2013-10-09 13:03:00,
2013-10-09 08:08:00,56.1,52.6,29.98,SE,136,0.0,2.0,88,0.00,,,0.00,WeatherCatV1.15B25,2013-10-09 13:08:00,
2013-10-09 08:13:00,56.3,52.8,29.98,SSE,158,0.0,5.0,88,0.00,,,0.00,WeatherCatV1.15B25,2013-10-09 13:13:00,
2013-10-09 08:18:00,56.5,53.0,29.98,ESE,123,0.0,0.0,88,0.00,,,0.00,WeatherCatV1.15B25,2013-10-09 13:18:00,
2013-10-09 08:23:00,56.8,53.3,29.98,SE,132,0.0,5.0,88,0.00,,,0.00,WeatherCatV1.15B25,2013-10-09 13:23:00,
2013-10-09 08:28:00,57.1,53.6,29.98,SSE,160,0.0,2.0,88,0.00,,,0.00,WeatherCatV1.15B25,2013-10-09 13:28:00,
2013-10-09 08:33:00,57.5,54.0,29.99,SE,142,3.0,4.0,88,0.00,,,0.00,WeatherCatV1.15B25,2013-10-09 13:33:00,
2013-10-09 08:38:00,57.9,54.4,29.99,South,182,0.0,4.0,88,0.00,,,0.00,WeatherCatV1.15B25,2013-10-09 13:38:00,
2013-10-09 08:43:00,58.5,54.6,29.99,SE,134,0.0,2.0,87,0.00,,,0.00,WeatherCatV1.15B25,2013-10-09 13:43:00,
2013-10-09 08:48:00,59.1,54.9,29.99,South,182,1.0,6.0,86,0.00,,,0.00,WeatherCatV1.15B25,2013-10-09 13:48:00,
2013-10-09 08:53:00,59.6,55.4,29.99,ESE,118,3.0,4.0,86,0.00,,,0.00,WeatherCatV1.15B25,2013-10-09 13:53:00,
2013-10-09 08:58:00,60.1,55.6,29.99,SSE,163,2.0,6.0,85,0.00,,,0.00,WeatherCatV1.15B25,2013-10-09 13:58:00,
2013-10-09 09:03:00,60.6,55.7,29.99,SSE,150,3.0,6.0,84,0.00,,,0.00,WeatherCatV1.15B25,2013-10-09 14:03:00,
2013-10-09 09:08:00,61.1,56.2,29.99,SSE,166,2.0,9.0,84,0.00,,,0.00,WeatherCatV1.15B25,2013-10-09 14:08:00,
2013-10-09 09:13:00,61.6,56.4,29.99,South,184,2.0,5.0,83,0.00,,,0.00,WeatherCatV1.15B25,2013-10-09 14:13:00,
2013-10-09 09:18:00,62.1,56.9,29.99,South,173,0.0,7.0,83,0.00,,,0.00,WeatherCatV1.15B25,2013-10-09 14:18:00,
2013-10-09 09:23:00,62.6,57.0,29.99,SE,142,4.0,7.0,82,0.00,,,0.00,WeatherCatV1.15B25,2013-10-09 14:23:00,
2013-10-09 09:28:00,63.2,57.3,29.99,SSW,203,3.0,6.0,81,0.00,,,0.00,WeatherCatV1.15B25,2013-10-09 14:28:00,
2013-10-09 09:33:00,63.7,57.8,30.00,SE,142,2.0,3.0,81,0.00,,,0.00,WeatherCatV1.15B25,2013-10-09 14:33:00,
2013-10-09 09:38:00,64.3,58.0,30.00,South,174,3.0,5.0,80,0.00,,,0.00,WeatherCatV1.15B25,2013-10-09 14:38:00,
2013-10-09 09:43:00,64.9,57.5,30.00,SW,223,0.0,9.0,77,0.00,,,0.00,WeatherCatV1.15B25,2013-10-09 14:43:00,
2013-10-09 09:48:00,65.5,57.7,30.00,SSE,157,0.0,10.0,76,0.00,,,0.00,WeatherCatV1.15B25,2013-10-09 14:48:00,
2013-10-09 09:53:00,66.0,57.8,30.00,SSW,195,0.0,10.0,75,0.00,,,0.00,WeatherCatV1.15B25,2013-10-09 14:53:00,
2013-10-09 09:58:00,66.5,57.9,30.00,SSW,192,0.0,7.0,74,0.00,,,0.00,WeatherCatV1.15B25,2013-10-09 14:58:00,
2013-10-09 10:03:00,67.0,58.4,30.00,South,176,6.0,6.0,74,0.00,,,0.00,WeatherCatV1.15B25,2013-10-09 15:03:00,
2013-10-09 10:08:00,67.4,58.4,30.00,SE,144,3.0,5.0,73,0.00,,,0.00,WeatherCatV1.15B25,2013-10-09 15:08:00,
2013-10-09 10:13:00,67.9,58.5,30.00,South,170,0.0,6.0,72,0.00,,,0.00,WeatherCatV1.15B25,2013-10-09 15:13:00,
2013-10-09 10:18:00,68.4,59.0,30.00,SW,215,3.0,7.0,72,0.00,,,0.00,WeatherCatV1.15B25,2013-10-09 15:18:00,
2013-10-09 10:23:00,68.8,59.4,30.00,SW,221,0.0,2.0,72,0.00,,,0.00,WeatherCatV1.15B25,2013-10-09 15:23:00,
2013-10-09 10:28:00,69.3,59.5,30.00,SW,217,0.0,6.0,71,0.00,,,0.00,WeatherCatV1.15B25,2013-10-09 15:28:00,
2013-10-09 10:33:00,69.8,59.6,30.00,South,180,0.0,6.0,70,0.00,,,0.00,WeatherCatV1.15B25,2013-10-09 15:33:00,
2013-10-09 10:38:00,70.3,59.6,30.00,SSW,193,0.0,6.0,69,0.00,,,0.00,WeatherCatV1.15B25,2013-10-09 15:38:00,
2013-10-09 10:43:00,70.8,59.7,30.00,SSW,211,1.0,3.0,68,0.00,,,0.00,WeatherCatV1.15B25,2013-10-09 15:43:00,
2013-10-09 10:48:00,71.3,59.8,30.00,SSW,210,4.0,4.0,67,0.00,,,0.00,WeatherCatV1.15B25,2013-10-09 15:48:00,
2013-10-09 10:53:00,71.7,59.7,30.00,SSW,213,1.0,6.0,66,0.00,,,0.00,WeatherCatV1.15B25,2013-10-09 15:53:00,
2013-10-09 10:58:00,72.3,59.9,30.00,West,268,4.0,5.0,65,0.00,,,0.00,WeatherCatV1.15B25,2013-10-09 15:58:00,
2013-10-09 11:03:00,73.2,59.4,30.00,SSW,192,2.0,5.0,62,0.00,,,0.00,WeatherCatV1.15B25,2013-10-09 16:03:00,
2013-10-09 11:08:00,73.9,59.6,30.00,SW,217,5.0,6.0,61,0.00,,,0.00,WeatherCatV1.15B25,2013-10-09 16:08:00,
2013-10-09 11:13:00,74.8,60.0,30.00,SW,234,2.0,7.0,60,0.00,,,0.00,WeatherCatV1.15B25,2013-10-09 16:13:00,
2013-10-09 11:18:00,75.5,59.7,30.00,SSW,206,4.0,5.0,58,0.00,,,0.00,WeatherCatV1.15B25,2013-10-09 16:18:00,
2013-10-09 11:23:00,75.9,59.6,30.00,SSW,203,1.0,5.0,57,0.00,,,0.00,WeatherCatV1.15B25,2013-10-09 16:23:00,
2013-10-09 11:28:00,76.0,59.2,30.00,South,180,1.0,4.0,56,0.00,,,0.00,WeatherCatV1.15B25,2013-10-09 16:28:00,
2013-10-09 11:33:00,76.5,60.1,30.00,West,265,2.0,3.0,57,0.00,,,0.00,WeatherCatV1.15B25,2013-10-09 16:33:00,
2013-10-09 11:38:00,77.2,59.2,30.00,SSW,205,2.0,3.0,54,0.00,,,0.00,WeatherCatV1.15B25,2013-10-09 16:38:00,
2013-10-09 11:43:00,77.6,59.6,30.00,South,191,2.0,5.0,54,0.00,,,0.00,WeatherCatV1.15B25,2013-10-09 16:43:00,
2013-10-09 11:48:00,78.0,59.5,30.00,SSW,203,5.0,7.0,53,0.00,,,0.00,WeatherCatV1.15B25,2013-10-09 16:48:00,
2013-10-09 11:53:00,78.2,58.6,30.00,WSW,244,0.0,6.0,51,0.00,,,0.00,WeatherCatV1.15B25,2013-10-09 16:53:00,
2013-10-09 11:58:00,78.7,59.0,30.00,WSW,249,0.0,3.0,51,0.00,,,0.00,WeatherCatV1.15B25,2013-10-09 16:58:00,
2013-10-09 12:03:00,79.3,60.1,29.99,West,263,5.0,6.0,52,0.00,,,0.00,WeatherCatV1.15B25,2013-10-09 17:03:00,
2013-10-09 12:08:00,79.7,59.9,29.99,SW,227,2.0,5.0,51,0.00,,,0.00,WeatherCatV1.15B25,2013-10-09 17:08:00,
2013-10-09 12:13:00,80.1,60.3,29.99,SSW,208,1.0,7.0,51,0.00,,,0.00,WeatherCatV1.15B25,2013-10-09 17:13:00,
2013-10-09 12:18:00,80.3,59.9,29.99,WSW,252,3.0,5.0,50,0.00,,,0.00,WeatherCatV1.15B25,2013-10-09 17:18:00,
2013-10-09 12:23:00,80.3,60.5,29.99,West,261,5.0,5.0,51,0.00,,,0.00,WeatherCatV1.15B25,2013-10-09 17:23:00,
2013-10-09 12:28:00,80.6,60.8,29.99,SW,223,0.0,3.0,51,0.00,,,0.00,WeatherCatV1.15B25,2013-10-09 17:28:00,
2013-10-09 12:33:00,80.7,59.7,29.99,South,188,0.0,4.0,49,0.00,,,0.00,WeatherCatV1.15B25,2013-10-09 17:33:00,
2013-10-09 12:38:00,80.8,61.0,29.99,South,180,2.0,7.0,51,0.00,,,0.00,WeatherCatV1.15B25,2013-10-09 17:38:00,
2013-10-09 12:43:00,80.9,59.9,29.99,West,281,2.0,8.0,49,0.00,,,0.00,WeatherCatV1.15B25,2013-10-09 17:43:00,
2013-10-09 12:48:00,81.1,60.7,29.98,WSW,239,0.0,7.0,50,0.00,,,0.00,WeatherCatV1.15B25,2013-10-09 17:48:00,
2013-10-09 12:53:00,81.5,60.5,29.98,SSW,210,1.0,3.0,49,0.00,,,0.00,WeatherCatV1.15B25,2013-10-09 17:53:00,
2013-10-09 12:58:00,81.8,60.2,29.98,SW,225,0.0,3.0,48,0.00,,,0.00,WeatherCatV1.15B25,2013-10-09 17:58:00,
2013-10-09 13:03:00,81.9,60.3,29.97,South,188,0.0,4.0,48,0.00,,,0.00,WeatherCatV1.15B25,2013-10-09 18:03:00,
2013-10-09 13:08:00,82.1,59.2,29.97,SSW,200,7.0,9.0,46,0.00,,,0.00,WeatherCatV1.15B25,2013-10-09 18:08:00,
2013-10-09 13:13:00,82.4,59.5,29.97,South,182,2.0,5.0,46,0.00,,,0.00,WeatherCatV1.15B25,2013-10-09 18:13:00,
2013-10-09 13:18:00,82.4,59.5,29.97,SE,128,3.0,3.0,46,0.00,,,0.00,WeatherCatV1.15B25,2013-10-09 18:18:00,
2013-10-09 13:23:00,82.5,59.0,29.97,SE,138,1.0,9.0,45,0.00,,,0.00,WeatherCatV1.15B25,2013-10-09 18:23:00,
2013-10-09 13:28:00,82.8,59.3,29.97,South,188,4.0,7.0,45,0.00,,,0.00,WeatherCatV1.15B25,2013-10-09 18:28:00,
2013-10-09 13:33:00,82.8,59.3,29.95,West,264,1.0,4.0,45,0.00,,,0.00,WeatherCatV1.15B25,2013-10-09 18:33:00,
2013-10-09 13:38:00,82.9,58.7,29.95,South,178,2.0,2.0,44,0.00,,,0.00,WeatherCatV1.15B25,2013-10-09 18:38:00,
2013-10-09 13:43:00,83.0,57.5,29.95,SE,125,0.0,3.0,42,0.00,,,0.00,WeatherCatV1.15B25,2013-10-09 18:43:00,
2013-10-09 13:48:00,82.7,58.5,29.95,SSW,205,1.0,9.0,44,0.00,,,0.00,WeatherCatV1.15B25,2013-10-09 18:48:00,
2013-10-09 13:53:00,82.5,59.0,29.95,SSW,197,2.0,2.0,45,0.00,,,0.00,WeatherCatV1.15B25,2013-10-09 18:53:00,
2013-10-09 13:58:00,82.8,59.9,29.95,SW,227,0.0,7.0,46,0.00,,,0.00,WeatherCatV1.15B25,2013-10-09 18:58:00,
2013-10-09 14:03:00,83.1,58.9,29.94,SW,217,0.0,4.0,44,0.00,,,0.00,WeatherCatV1.15B25,2013-10-09 19:03:00,
2013-10-09 14:08:00,82.9,58.7,29.94,SW,221,0.0,3.0,44,0.00,,,0.00,WeatherCatV1.15B25,2013-10-09 19:08:00,
2013-10-09 14:13:00,82.9,58.7,29.94,SSW,207,0.0,1.0,44,0.00,,,0.00,WeatherCatV1.15B25,2013-10-09 19:13:00,
2013-10-09 14:18:00,83.2,58.3,29.93,South,181,2.0,5.0,43,0.00,,,0.00,WeatherCatV1.15B25,2013-10-09 19:18:00,
2013-10-09 14:23:00,83.4,59.2,29.93,SSE,154,0.0,3.0,44,0.00,,,0.00,WeatherCatV1.15B25,2013-10-09 19:23:00,
2013-10-09 14:28:00,83.8,59.5,29.93,South,169,0.0,1.0,44,0.00,,,0.00,WeatherCatV1.15B25,2013-10-09 19:28:00,
2013-10-09 14:33:00,84.0,58.4,29.93,SSE,160,0.0,5.0,42,0.00,,,0.00,WeatherCatV1.15B25,2013-10-09 19:33:00,
2013-10-09 14:38:00,84.2,59.9,29.93,SSW,201,0.0,6.0,44,0.00,,,0.00,WeatherCatV1.15B25,2013-10-09 19:38:00,
2013-10-09 14:43:00,84.4,58.8,29.93,SSW,192,0.0,5.0,42,0.00,,,0.00,WeatherCatV1.15B25,2013-10-09 19:43:00,
2013-10-09 14:48:00,84.6,58.9,29.92,SSE,163,0.0,3.0,42,0.00,,,0.00,WeatherCatV1.15B25,2013-10-09 19:48:00,
2013-10-09 14:53:00,84.9,59.9,29.92,WSW,245,0.0,0.0,43,0.00,,,0.00,WeatherCatV1.15B25,2013-10-09 19:53:00,
2013-10-09 14:58:00,85.3,58.2,29.92,ESE,123,6.0,9.0,40,0.00,,,0.00,WeatherCatV1.15B25,2013-10-09 19:58:00,
2013-10-09 15:03:00,85.4,57.6,29.92,NNE,15,0.0,0.0,39,0.00,,,0.00,WeatherCatV1.15B25,2013-10-09 20:03:00,
2013-10-09 15:08:00,85.6,59.8,29.92,SSE,148,0.0,6.0,42,0.00,,,0.00,WeatherCatV1.15B25,2013-10-09 20:08:00,
2013-10-09 15:13:00,85.7,58.6,29.92,South,182,0.0,5.0,40,0.00,,,0.00,WeatherCatV1.15B25,2013-10-09 20:13:00,
2013-10-09 15:18:00,85.7,58.6,29.92,SSW,212,3.0,6.0,40,0.00,,,0.00,WeatherCatV1.15B25,2013-10-09 20:18:00,
2013-10-09 15:23:00,85.3,58.9,29.92,SSE,159,3.0,6.0,41,0.00,,,0.00,WeatherCatV1.15B25,2013-10-09 20:23:00,
2013-10-09 15:28:00,84.9,57.8,29.92,SSE,151,3.0,5.0,40,0.00,,,0.00,WeatherCatV1.15B25,2013-10-09 20:28:00,
2013-10-09 15:33:00,84.7,58.4,29.92,SSE,156,4.0,7.0,41,0.00,,,0.00,WeatherCatV1.15B25,2013-10-09 20:33:00,
2013-10-09 15:38:00,84.7,58.4,29.92,SSW,205,0.0,5.0,41,0.00,,,0.00,WeatherCatV1.15B25,2013-10-09 20:38:00,
2013-10-09 15:43:00,84.8,56.3,29.92,ESE,117,0.0,6.0,38,0.00,,,0.00,WeatherCatV1.15B25,2013-10-09 20:43:00,
2013-10-09 15:48:00,85.2,56.7,29.92,SE,136,0.0,0.0,38,0.00,,,0.00,WeatherCatV1.15B25,2013-10-09 20:48:00,
2013-10-09 15:53:00,85.6,57.0,29.92,SSW,196,0.0,4.0,38,0.00,,,0.00,WeatherCatV1.15B25,2013-10-09 20:53:00,
2013-10-09 15:58:00,85.7,57.9,29.92,SSW,213,3.0,3.0,39,0.00,,,0.00,WeatherCatV1.15B25,2013-10-09 20:58:00,
2013-10-09 16:03:00,85.6,56.3,29.92,South,183,0.0,4.0,37,0.00,,,0.00,WeatherCatV1.15B25,2013-10-09 21:03:00,
2013-10-09 16:08:00,85.7,55.6,29.92,SSE,151,0.0,3.0,36,0.00,,,0.00,WeatherCatV1.15B25,2013-10-09 21:08:00,
2013-10-09 16:13:00,85.8,57.9,29.92,SSE,167,0.0,1.0,39,0.00,,,0.00,WeatherCatV1.15B25,2013-10-09 21:13:00,
2013-10-09 16:18:00,85.7,57.1,29.92,SSE,155,0.0,7.0,38,0.00,,,0.00,WeatherCatV1.15B25,2013-10-09 21:18:00,
2013-10-09 16:23:00,85.7,57.1,29.92,South,171,0.0,2.0,38,0.00,,,0.00,WeatherCatV1.15B25,2013-10-09 21:23:00,
2013-10-09 16:28:00,85.7,57.9,29.92,SSW,198,0.0,5.0,39,0.00,,,0.00,WeatherCatV1.15B25,2013-10-09 21:28:00,
2013-10-09 16:33:00,85.6,56.3,29.91,South,172,0.0,4.0,37,0.00,,,0.00,WeatherCatV1.15B25,2013-10-09 21:33:00,
2013-10-09 16:38:00,85.5,56.2,29.91,SSW,211,0.0,0.0,37,0.00,,,0.00,WeatherCatV1.15B25,2013-10-09 21:38:00,
2013-10-09 16:43:00,85.4,56.1,29.91,SSE,156,0.0,3.0,37,0.00,,,0.00,WeatherCatV1.15B25,2013-10-09 21:43:00,
2013-10-09 16:48:00,85.2,55.2,29.91,SSE,167,0.0,6.0,36,0.00,,,0.00,WeatherCatV1.15B25,2013-10-09 21:48:00,
2013-10-09 16:53:00,84.8,54.8,29.91,SSE,168,0.0,3.0,36,0.00,,,0.00,WeatherCatV1.15B25,2013-10-09 21:53:00,
2013-10-09 16:58:00,84.5,53.0,29.91,SSW,195,0.0,5.0,34,0.00,,,0.00,WeatherCatV1.15B25,2013-10-09 21:58:00,
2013-10-09 17:03:00,84.2,54.3,29.92,SE,146,0.0,9.0,36,0.00,,,0.00,WeatherCatV1.15B25,2013-10-09 22:03:00,
2013-10-09 17:08:00,83.8,55.5,29.92,SE,135,0.0,2.0,38,0.00,,,0.00,WeatherCatV1.15B25,2013-10-09 22:08:00,
2013-10-09 17:13:00,83.5,53.7,29.92,South,172,4.0,4.0,36,0.00,,,0.00,WeatherCatV1.15B25,2013-10-09 22:13:00,
2013-10-09 17:18:00,83.2,55.6,29.91,South,190,0.0,0.0,39,0.00,,,0.00,WeatherCatV1.15B25,2013-10-09 22:18:00,
2013-10-09 17:23:00,82.8,55.3,29.91,South,173,0.0,4.0,39,0.00,,,0.00,WeatherCatV1.15B25,2013-10-09 22:23:00,
2013-10-09 17:28:00,82.4,54.9,29.91,SE,143,0.0,6.0,39,0.00,,,0.00,WeatherCatV1.15B25,2013-10-09 22:28:00,
2013-10-09 17:33:00,82.0,53.9,29.91,SSE,167,2.0,4.0,38,0.00,,,0.00,WeatherCatV1.15B25,2013-10-09 22:33:00,
2013-10-09 17:38:00,81.5,54.1,29.91,South,186,2.0,8.0,39,0.00,,,0.00,WeatherCatV1.15B25,2013-10-09 22:38:00,
2013-10-09 17:43:00,81.1,53.8,29.91,SSE,155,0.0,5.0,39,0.00,,,0.00,WeatherCatV1.15B25,2013-10-09 22:43:00,
2013-10-09 17:48:00,80.7,54.1,29.91,SSE,158,0.0,4.0,40,0.00,,,0.00,WeatherCatV1.15B25,2013-10-09 22:48:00,
2013-10-09 17:53:00,80.3,53.1,29.91,SE,136,0.0,6.0,39,0.00,,,0.00,WeatherCatV1.15B25,2013-10-09 22:53:00,
2013-10-09 17:58:00,80.1,54.2,29.91,South,172,0.0,3.0,41,0.00,,,0.00,WeatherCatV1.15B25,2013-10-09 22:58:00,
2013-10-09 18:03:00,79.7,55.2,29.91,South,177,0.0,2.0,43,0.00,,,0.00,WeatherCatV1.15B25,2013-10-09 23:03:00,
2013-10-09 18:08:00,79.5,55.0,29.91,SE,139,0.0,3.0,43,0.00,,,0.00,WeatherCatV1.15B25,2013-10-09 23:08:00,
2013-10-09 18:13:00,79.2,55.4,29.91,SE,134,0.0,1.0,44,0.00,,,0.00,WeatherCatV1.15B25,2013-10-09 23:13:00,
2013-10-09 18:18:00,78.9,55.1,29.91,SSE,162,0.0,0.0,44,0.00,,,0.00,WeatherCatV1.15B25,2013-10-09 23:18:00,
2013-10-09 18:23:00,78.6,54.8,29.91,SE,143,0.0,3.0,44,0.00,,,0.00,WeatherCatV1.15B25,2013-10-09 23:23:00,
2013-10-09 18:28:00,78.3,55.8,29.91,South,189,0.0,1.0,46,0.00,,,0.00,WeatherCatV1.15B25,2013-10-09 23:28:00,
2013-10-09 18:33:00,78.0,55.5,29.91,SSE,163,0.0,1.0,46,0.00,,,0.00,WeatherCatV1.15B25,2013-10-09 23:33:00,
2013-10-09 18:38:00,77.7,55.8,29.91,SE,136,0.0,0.0,47,0.00,,,0.00,WeatherCatV1.15B25,2013-10-09 23:38:00,
2013-10-09 18:43:00,77.4,56.2,29.91,SSW,207,0.0,0.0,48,0.00,,,0.00,WeatherCatV1.15B25,2013-10-09 23:43:00,
2013-10-09 18:48:00,77.1,56.4,29.91,SE,129,0.0,0.0,49,0.00,,,0.00,WeatherCatV1.15B25,2013-10-09 23:48:00,
2013-10-09 18:53:00,76.7,56.1,29.91,South,177,0.0,0.0,49,0.00,,,0.00,WeatherCatV1.15B25,2013-10-09 23:53:00,
2013-10-09 18:58:00,76.3,57.4,29.91,SE,134,0.0,0.0,52,0.00,,,0.00,WeatherCatV1.15B25,2013-10-09 23:58:00,
2013-10-09 19:03:00,75.8,57.4,29.91,SE,134,0.0,0.0,53,0.00,,,0.00,WeatherCatV1.15B25,2013-10-10 00:03:00,
2013-10-09 19:08:00,75.3,57.5,29.91,SE,134,0.0,0.0,54,0.00,,,0.00,WeatherCatV1.15B25,2013-10-10 00:08:00,
2013-10-09 19:13:00,74.9,57.6,29.91,SE,134,0.0,0.0,55,0.00,,,0.00,WeatherCatV1.15B25,2013-10-10 00:13:00,
2013-10-09 19:18:00,74.4,57.2,29.91,SE,134,0.0,0.0,55,0.00,,,0.00,WeatherCatV1.15B25,2013-10-10 00:18:00,
2013-10-09 19:23:00,73.9,57.7,29.91,SE,134,0.0,0.0,57,0.00,,,0.00,WeatherCatV1.15B25,2013-10-10 00:23:00,
2013-10-09 19:28:00,73.3,57.1,29.91,SE,134,0.0,0.0,57,0.00,,,0.00,WeatherCatV1.15B25,2013-10-10 00:28:00,
2013-10-09 19:33:00,72.8,57.1,29.91,SE,134,0.0,0.0,58,0.00,,,0.00,WeatherCatV1.15B25,2013-10-10 00:33:00,
2013-10-09 19:38:00,72.4,57.2,29.91,SE,134,0.0,0.0,59,0.00,,,0.00,WeatherCatV1.15B25,2013-10-10 00:38:00,
2013-10-09 19:43:00,71.9,57.2,29.91,SE,134,0.0,0.0,60,0.00,,,0.00,WeatherCatV1.15B25,2013-10-10 00:43:00,
2013-10-09 19:48:00,71.5,57.3,29.91,SE,134,0.0,0.0,61,0.00,,,0.00,WeatherCatV1.15B25,2013-10-10 00:48:00,
2013-10-09 19:53:00,71.2,57.0,29.91,SE,134,0.0,0.0,61,0.00,,,0.00,WeatherCatV1.15B25,2013-10-10 00:53:00,
2013-10-09 19:58:00,70.8,57.1,29.91,SE,134,0.0,0.0,62,0.00,,,0.00,WeatherCatV1.15B25,2013-10-10 00:58:00,
2013-10-09 20:03:00,70.5,57.3,29.91,SE,134,0.0,0.0,63,0.00,,,0.00,WeatherCatV1.15B25,2013-10-10 01:03:00,
2013-10-09 20:08:00,70.2,57.0,29.91,SE,134,0.0,0.0,63,0.00,,,0.00,WeatherCatV1.15B25,2013-10-10 01:08:00,
2013-10-09 20:13:00,69.9,57.2,29.91,SE,134,0.0,0.0,64,0.00,,,0.00,WeatherCatV1.15B25,2013-10-10 01:13:00,
2013-10-09 20:18:00,69.6,56.9,29.91,South,190,0.0,0.0,64,0.00,,,0.00,WeatherCatV1.15B25,2013-10-10 01:18:00,
2013-10-09 20:23:00,69.3,56.6,29.91,South,190,0.0,0.0,64,0.00,,,0.00,WeatherCatV1.15B25,2013-10-10 01:23:00,
2013-10-09 20:28:00,69.1,56.8,29.91,South,190,0.0,0.0,65,0.00,,,0.00,WeatherCatV1.15B25,2013-10-10 01:28:00,
2013-10-09 20:33:00,68.8,57.0,29.92,SE,140,0.0,0.0,66,0.00,,,0.00,WeatherCatV1.15B25,2013-10-10 01:33:00,
2013-10-09 20:38:00,68.6,56.8,29.92,SE,143,0.0,0.0,66,0.00,,,0.00,WeatherCatV1.15B25,2013-10-10 01:38:00,
2013-10-09 20:43:00,68.4,56.6,29.92,SE,143,0.0,0.0,66,0.00,,,0.00,WeatherCatV1.15B25,2013-10-10 01:43:00,
2013-10-09 20:48:00,68.3,56.5,29.92,SE,143,0.0,0.0,66,0.00,,,0.00,WeatherCatV1.15B25,2013-10-10 01:48:00,
2013-10-09 20:53:00,68.1,56.7,29.92,SE,143,0.0,0.0,67,0.00,,,0.00,WeatherCatV1.15B25,2013-10-10 01:53:00,
2013-10-09 20:58:00,68.0,57.0,29.92,SE,143,0.0,0.0,68,0.00,,,0.00,WeatherCatV1.15B25,2013-10-10 01:58:00,
2013-10-09 21:03:00,67.9,56.9,29.92,SE,143,0.0,0.0,68,0.00,,,0.00,WeatherCatV1.15B25,2013-10-10 02:03:00,
2013-10-09 21:08:00,67.7,56.7,29.92,SE,143,0.0,0.0,68,0.00,,,0.00,WeatherCatV1.15B25,2013-10-10 02:08:00,
2013-10-09 21:13:00,67.6,57.1,29.92,SE,143,0.0,0.0,69,0.00,,,0.00,WeatherCatV1.15B25,2013-10-10 02:13:00,
2013-10-09 21:18:00,67.4,56.5,29.92,ESE,120,0.0,0.0,68,0.00,,,0.00,WeatherCatV1.15B25,2013-10-10 02:18:00,
2013-10-09 21:23:00,67.2,56.7,29.92,SSE,151,0.0,0.0,69,0.00,,,0.00,WeatherCatV1.15B25,2013-10-10 02:23:00,
2013-10-09 21:28:00,67.1,56.6,29.92,ESE,111,0.0,0.0,69,0.00,,,0.00,WeatherCatV1.15B25,2013-10-10 02:28:00,
2013-10-09 21:33:00,67.0,56.9,29.92,ESE,123,0.0,0.0,70,0.00,,,0.00,WeatherCatV1.15B25,2013-10-10 02:33:00,
2013-10-09 21:38:00,66.8,56.7,29.92,SE,132,0.0,0.0,70,0.00,,,0.00,WeatherCatV1.15B25,2013-10-10 02:38:00,
2013-10-09 21:43:00,66.7,56.6,29.92,SE,130,0.0,0.0,70,0.00,,,0.00,WeatherCatV1.15B25,2013-10-10 02:43:00,
2013-10-09 21:48:00,66.7,56.6,29.93,SE,130,0.0,0.0,70,0.00,,,0.00,WeatherCatV1.15B25,2013-10-10 02:48:00,
2013-10-09 21:53:00,66.6,56.9,29.93,SE,126,0.0,0.0,71,0.00,,,0.00,WeatherCatV1.15B25,2013-10-10 02:53:00,
2013-10-09 21:58:00,66.6,56.9,29.93,SE,133,0.0,0.0,71,0.00,,,0.00,WeatherCatV1.15B25,2013-10-10 02:58:00,
2013-10-09 22:03:00,66.5,56.8,29.93,SE,139,0.0,0.0,71,0.00,,,0.00,WeatherCatV1.15B25,2013-10-10 03:03:00,
2013-10-09 22:08:00,66.4,57.1,29.93,SSE,148,0.0,0.0,72,0.00,,,0.00,WeatherCatV1.15B25,2013-10-10 03:08:00,
2013-10-09 22:13:00,66.3,57.0,29.93,ENE,77,0.0,0.0,72,0.00,,,0.00,WeatherCatV1.15B25,2013-10-10 03:13:00,
2013-10-09 22:18:00,66.2,56.9,29.94,SE,129,0.0,0.0,72,0.00,,,0.00,WeatherCatV1.15B25,2013-10-10 03:18:00,
2013-10-09 22:23:00,66.1,56.8,29.94,ESE,105,0.0,0.0,72,0.00,,,0.00,WeatherCatV1.15B25,2013-10-10 03:23:00,
2013-10-09 22:28:00,65.9,57.0,29.94,SSE,157,0.0,0.0,73,0.00,,,0.00,WeatherCatV1.15B25,2013-10-10 03:28:00,
2013-10-09 22:33:00,65.8,56.9,29.94,SE,143,0.0,0.0,73,0.00,,,0.00,WeatherCatV1.15B25,2013-10-10 03:33:00,
2013-10-09 22:38:00,65.7,56.8,29.94,SSW,194,0.0,0.0,73,0.00,,,0.00,WeatherCatV1.15B25,2013-10-10 03:38:00,
2013-10-09 22:43:00,65.6,56.7,29.94,SE,128,0.0,0.0,73,0.00,,,0.00,WeatherCatV1.15B25,2013-10-10 03:43:00,
2013-10-09 22:48:00,65.6,56.7,29.94,South,181,0.0,2.0,73,0.00,,,0.00,WeatherCatV1.15B25,2013-10-10 03:48:00,
2013-10-09 22:53:00,65.6,56.7,29.94,SSE,151,0.0,3.0,73,0.00,,,0.00,WeatherCatV1.15B25,2013-10-10 03:53:00,
2013-10-09 22:58:00,65.5,56.6,29.94,South,173,0.0,0.0,73,0.00,,,0.00,WeatherCatV1.15B25,2013-10-10 03:58:00,
2013-10-09 23:01:00,65.4,56.5,29.94,SSE,159,0.0,0.0,73,0.00,,,0.00,WeatherCatV1.15B25,2013-10-10 04:01:00,
2013-10-09 23:06:00,65.3,56.8,29.94,SSE,150,0.0,0.0,74,0.00,,,0.00,WeatherCatV1.15B25,2013-10-10 04:06:00,
2013-10-09 23:11:00,65.2,56.7,29.94,SSE,152,0.0,0.0,74,0.00,,,0.00,WeatherCatV1.15B25,2013-10-10 04:11:00,
2013-10-09 23:16:00,65.1,56.6,29.94,East,97,0.0,0.0,74,0.00,,,0.00,WeatherCatV1.15B25,2013-10-10 04:16:00,
2013-10-09 23:21:00,65.0,56.5,29.94,South,169,0.0,0.0,74,0.00,,,0.00,WeatherCatV1.15B25,2013-10-10 04:21:00,
2013-10-09 23:26:00,64.9,56.8,29.94,SE,139,0.0,0.0,75,0.00,,,0.00,WeatherCatV1.15B25,2013-10-10 04:26:00,
2013-10-09 23:31:00,64.8,56.7,29.94,SE,139,0.0,0.0,75,0.00,,,0.00,WeatherCatV1.15B25,2013-10-10 04:31:00,
2013-10-09 23:36:00,64.7,56.6,29.94,ESE,123,0.0,0.0,75,0.00,,,0.00,WeatherCatV1.15B25,2013-10-10 04:36:00,
2013-10-09 23:41:00,64.7,56.6,29.94,ESE,119,0.0,0.0,75,0.00,,,0.00,WeatherCatV1.15B25,2013-10-10 04:41:00,
2013-10-09 23:46:00,64.6,56.9,29.94,SE,140,0.0,3.0,76,0.00,,,0.00,WeatherCatV1.15B25,2013-10-10 04:46:00,
2013-10-09 23:51:00,64.5,56.8,29.94,SSE,167,0.0,0.0,76,0.00,,,0.00,WeatherCatV1.15B25,2013-10-10 04:51:00,
2013-10-09 23:56:00,64.5,56.8,29.94,ESE,111,0.0,0.0,76,0.00,,,0.00,WeatherCatV1.15B25,2013-10-10 04:56:00,